Location: ??
(35.5052°N, 139.7262°E)
Time: 22:49:57
(UTC+00:00)

deb Kosmos-1763 - Pass Details

Date: 20 June 2021
Orbit: 445 x 453 km, 74.0° (Epoch: 05 August)

Event Time Altitude Azimuth Distance (km) Brightness Sun altitude
Exits shadow 17:41:12 45° 195° (SSW) 628 4.2 -17.5°
Maximum altitude 17:42:11 88° 114° (ESE) 458 3.8 -17.4°
Drops below altitude 10° 17:45:43 10° 18° (NNE) 1,596 7.7 -16.9°
Sets 17:47:49 0° 18° (NNE) 2,476 8.9 -16.6°
